K3CHZ Weather Reports


Display with metric or nautical units.
time (UTC)temp
F
wind
direction
speed
MPH
gust
MPH
rain 1hr
in
rain 24hr
in
rain mn
in
humidity
%
barometer
mb
20260502130718 48 333 0.0 1.0 0.00 0.00 0.00 71 1014.5
20260502130218 48 241 0.0 0.0 0.00 0.00 0.00 72 1014.5
20260502123718 47 295 0.0 1.0 0.00 0.00 0.00 72 1014.4
20260502123218 47 294 0.0 1.0 0.00 0.00 0.00 72 1014.4
20260502122718 47 294 0.0 2.0 0.00 0.00 0.00 72 1014.3
20260502122218 47 279 0.0 2.0 0.00 0.00 0.00 73 1014.5
20260502121718 46 28 0.0 2.0 0.00 0.00 0.00 74 1014.5
20260502121218 46 56 0.0 1.0 0.00 0.00 0.00 75 1014.6
20260502120718 46 289 0.0 2.0 0.00 0.00 0.00 75 1014.4
20260502120221 46 332 0.0 3.0 0.00 0.00 0.00 75 1014.1
20260502115719 46 312 1.0 3.0 0.00 0.00 0.00 75 1014.1
20260502115217 46 337 0.0 3.0 0.00 0.00 0.00 75 1014.2
20260502114718 46 336 0.0 3.0 0.00 0.00 0.00 75 1014.2
20260502114218 46 344 0.0 2.0 0.00 0.00 0.00 75 1014.4
20260502113718 46 337 0.0 2.0 0.00 0.00 0.00 75 1014.4
20260502113218 46 354 0.0 3.0 0.00 0.00 0.00 74 1014.4
20260502112716 46 346 1.0 3.0 0.00 0.00 0.00 75 1014.3
20260502112215 46 315 0.0 3.0 0.00 0.00 0.00 75 1014.2
20260502111716 46 281 0.0 1.0 0.00 0.00 0.00 75 1014.2
20260502111215 46 326 0.0 1.0 0.00 0.00 0.00 74 1014.1
20260502110715 46 326 0.0 1.0 0.00 0.00 0.00 74 1014.0
20260502110215 46 326 0.0 0.0 0.00 0.00 0.00 74 1014.0
20260502105714 46 326 0.0 0.0 0.00 0.00 0.00 74 1013.8
20260502105216 46 326 0.0 5.0 0.00 0.00 0.00 74 1013.9
20260502104715 46 326 0.0 5.0 0.00 0.00 0.00 74 1013.8
20260502104216 46 323 0.0 3.0 0.00 0.00 0.00 73 1013.9
20260502103715 46 312 1.0 3.0 0.00 0.00 0.00 74 1013.7
20260502103216 47 313 0.0 3.0 0.00 0.00 0.00 74 1013.7
20260502102716 47 312 1.0 2.0 0.00 0.00 0.00 74 1013.7
20260502102221 47 312 0.0 0.0 0.00 0.00 0.00 73 1013.7
20260502101721 47 312 0.0 0.0 0.00 0.00 0.00 73 1013.6
20260502101221 47 312 0.0 3.0 0.00 0.00 0.00 73 1013.5
20260502100721 47 312 0.0 3.0 0.00 0.00 0.00 72 1013.4
20260502100221 47 312 0.0 3.0 0.00 0.00 0.00 72 1013.4
20260502091221 49 307 1.0 3.0 0.00 0.00 0.00 70 1013.0
20260502090722 49 317 2.0 3.0 0.00 0.00 0.00 71 1013.2
20260502090221 49 314 1.0 3.0 0.00 0.00 0.00 70 1013.2
20260502071218 52 316 1.0 3.0 0.00 0.00 0.00 76 1012.6
20260502070718 52 316 1.0 3.0 0.00 0.00 0.00 77 1012.6
20260502070218 52 316 2.0 3.0 0.00 0.00 0.00 78 1012.6
20260502065718 52 316 0.0 1.0 0.00 0.00 0.00 78 1012.6
20260502065218 52 316 0.0 0.0 0.00 0.00 0.00 78 1012.6
20260502064718 52 316 0.0 0.0 0.00 0.00 0.00 79 1012.6
20260502064220 52 316 0.0 1.0 0.00 0.00 0.00 79 1012.6
20260502063719 52 316 0.0 1.0 0.00 0.00 0.00 79 1012.7
20260502063218 52 316 0.0 0.0 0.00 0.00 0.00 80 1012.9
20260502062719 52 316 0.0 0.0 0.00 0.00 0.00 82 1012.9
20260502062221 52 316 0.0 0.0 0.00 0.00 0.00 81 1012.9
20260502061718 52 316 0.0 0.0 0.00 0.00 0.00 82 1013.0
20260502061218 52 316 0.0 0.0 0.00 0.00 0.00 82 1013.0
20260502060718 52 316 0.0 0.0 0.00 0.00 0.00 82 1013.2
20260502060219 52 316 0.0 0.0 0.00 0.00 0.00 81 1013.2
20260502055718 53 316 0.0 0.0 0.00 0.00 0.00 81 1013.1
20260502055218 53 316 0.0 0.0 0.00 0.00 0.00 80 1013.1
20260502054719 53 316 0.0 0.0 0.00 0.00 0.00 80 1013.2
20260502054218 53 316 0.0 0.0 0.00 0.00 0.00 80 1013.0
20260502053718 53 316 0.0 0.0 0.00 0.00 0.00 78 1013.0
20260502053218 53 316 0.0 0.0 0.00 0.00 0.00 78 1013.2
20260502052719 53 316 0.0 0.0 0.00 0.00 0.00 78 1013.2
20260502052218 53 316 0.0 0.0 0.00 0.00 0.00 77 1013.2
20260502051718 53 316 0.0 0.0 0.00 0.00 0.00 77 1013.2
20260502051218 54 316 0.0 0.0 0.00 0.00 0.00 77 1013.1
20260502050719 54 316 0.0 0.0 0.00 0.00 0.00 76 1013.1
20260502050219 54 316 0.0 0.0 0.00 0.00 0.00 75 1013.1
20260502045718 54 316 0.0 0.0 0.00 0.00 0.00 75 1013.0
20260502045218 54 316 0.0 0.0 0.00 0.00 0.00 75 1013.0
20260502044719 54 316 0.0 0.0 0.00 0.00 0.00 75 1013.0
20260502044219 53 316 0.0 0.0 0.00 0.00 0.00 77 1012.9
20260502043719 53 316 0.0 0.0 0.00 0.00 0.00 75 1013.0
20260502043219 53 316 0.0 0.0 0.00 0.00 0.00 76 1013.0
20260502042719 53 316 0.0 0.0 0.00 0.00 0.00 76 1012.9
20260502042218 53 316 0.0 0.0 0.00 0.00 0.00 77 1012.9
20260502041719 53 316 0.0 0.0 0.00 0.00 0.00 77 1012.9
20260502041218 53 316 0.0 0.0 0.00 0.00 0.00 77 1012.9
20260502040720 53 316 0.0 1.0 0.00 0.00 0.00 77 1012.9
20260502040219 54 316 0.0 1.0 0.00 0.00 0.00 76 1012.9
20260502035718 54 316 0.0 0.0 0.00 0.00 0.00 76 1012.7
20260502035218 54 316 0.0 0.0 0.00 0.00 0.00 75 1012.8
20260502034720 54 316 0.0 0.0 0.00 0.00 0.00 74 1012.8
20260502034219 54 316 0.0 0.0 0.00 0.00 0.00 72 1012.7
20260502033719 54 316 0.0 0.0 0.00 0.00 0.00 72 1012.9
20260502033219 54 316 0.0 0.0 0.00 0.00 0.00 73 1012.8
20260502032719 54 316 0.0 0.0 0.00 0.00 0.00 74 1012.5
20260502032221 54 316 0.0 0.0 0.00 0.00 0.00 71 1012.5
20260502031721 54 316 0.0 0.0 0.00 0.00 0.00 73 1012.4
20260502031222 55 316 0.0 0.0 0.00 0.00 0.00 73 1012.0
20260502030721 55 164 0.0 0.0 0.00 0.00 0.00 69 1012.0
20260502030221 55 164 0.0 0.0 0.00 0.00 0.00 67 1011.8
20260502025721 55 164 0.0 0.0 0.00 0.00 0.00 66 1011.8
20260502025223 55 164 0.0 0.0 0.00 0.00 0.00 67 1011.9
20260502024722 55 164 0.0 0.0 0.00 0.00 0.00 65 1011.9
20260502024223 55 164 0.0 0.0 0.00 0.00 0.00 64 1011.9
20260502023722 55 164 0.0 0.0 0.00 0.00 0.00 64 1011.9
20260502023222 55 164 0.0 0.0 0.00 0.00 0.00 65 1011.9
20260502022715 55 164 0.0 0.0 0.00 0.00 0.00 63 1011.9
20260502022215 55 164 0.0 2.0 0.00 0.00 0.00 64 1011.9
20260502021716 56 164 0.0 2.0 0.00 0.00 0.00 63 1011.8
20260502021217 56 164 1.0 3.0 0.00 0.00 0.00 63 1011.8
20260502020717 56 164 1.0 3.0 0.00 0.00 0.00 62 1011.9
20260502020215 56 164 0.0 5.0 0.00 0.00 0.00 61 1011.9
20260502015716 56 164 0.0 5.0 0.00 0.00 0.00 60 1012.0
20260502015215 56 153 0.0 2.0 0.00 0.00 0.00 58 1011.8
20260502014716 56 153 1.0 2.0 0.00 0.00 0.00 57 1011.6
20260502014216 57 153 0.0 2.0 0.00 0.00 0.00 57 1011.6
20260502013716 57 153 0.0 3.0 0.00 0.00 0.00 57 1011.4
20260502013217 57 153 1.0 3.0 0.00 0.00 0.00 56 1011.4
20260502012717 57 153 0.0 3.0 0.00 0.00 0.00 57 1011.3
20260502012219 57 153 1.0 3.0 0.00 0.00 0.00 57 1010.9
20260502011720 58 158 0.0 0.0 0.00 0.00 0.00 57 1011.3
20260502011218 58 158 0.0 0.0 0.00 0.00 0.00 56 1011.2
20260502010719 58 158 0.0 0.0 0.00 0.00 0.00 56 1011.1
20260502010219 58 158 0.0 1.0 0.00 0.00 0.00 56 1011.0
20260502005720 58 158 0.0 1.0 0.00 0.00 0.00 54 1010.9
20260502005219 59 158 0.0 1.0 0.00 0.00 0.00 54 1010.9
20260502004719 59 158 0.0 3.0 0.00 0.00 0.00 55 1010.8
20260502004219 59 158 0.0 3.0 0.00 0.00 0.00 52 1010.8
20260502003719 59 158 1.0 3.0 0.00 0.00 0.00 52 1010.8
20260502003218 60 158 0.0 3.0 0.00 0.00 0.00 50 1010.7
20260502002716 60 158 0.0 0.0 0.00 0.00 0.00 48 1010.8
20260502002216 60 158 0.0 0.0 0.00 0.00 0.00 48 1010.7
20260502001716 60 158 0.0 0.0 0.00 0.00 0.00 47 1010.6
20260502001217 60 158 0.0 0.0 0.00 0.00 0.00 47 1010.5
20260502000716 60 158 0.0 0.0 0.00 0.00 0.00 47 1010.4
20260502000218 61 158 0.0 0.0 0.00 0.00 0.00 46 1010.4
20260501235716 61 158 0.0 0.0 0.00 0.00 0.00 47 1010.2
20260501235216 61 158 0.0 2.0 0.00 0.00 0.00 46 1010.1
20260501234716 61 158 0.0 2.0 0.00 0.00 0.00 45 1010.2
20260501234215 61 158 0.0 2.0 0.00 0.00 0.00 46 1010.2
20260501233717 61 158 0.0 2.0 0.00 0.00 0.00 46 1010.0
20260501233215 61 158 0.0 0.0 0.00 0.00 0.00 45 1010.1
20260501232717 61 158 0.0 3.0 0.00 0.00 0.00 45 1010.2
20260501232220 61 158 1.0 3.0 0.00 0.00 0.00 45 1010.2
20260501231720 61 158 1.0 3.0 0.00 0.00 0.00 44 1010.2
20260501231218 61 158 1.0 3.0 0.00 0.00 0.00 44 1010.2
20260501230722 61 158 0.0 3.0 0.00 0.00 0.00 44 1010.2
20260501230218 61 158 0.0 3.0 0.00 0.00 0.00 45 1010.2
20260501225719 62 158 1.0 3.0 0.00 0.00 0.00 46 1010.3
20260501225218 61 158 0.0 3.0 0.00 0.00 0.00 44 1010.3
20260501224719 61 158 1.0 3.0 0.00 0.00 0.00 45 1010.3
20260501224219 62 158 0.0 0.0 0.00 0.00 0.00 47 1010.2
20260501223720 62 158 0.0 2.0 0.00 0.00 0.00 45 1010.1
20260501223219 62 158 0.0 2.0 0.00 0.00 0.00 43 1010.1
20260501222720 62 158 0.0 2.0 0.00 0.00 0.00 44 1010.3
20260501222221 62 158 1.0 5.0 0.00 0.00 0.00 43 1010.1
20260501221721 62 158 1.0 5.0 0.00 0.00 0.00 42 1010.2
20260501221221 63 158 1.0 6.0 0.00 0.00 0.00 43 1010.2
20260501220722 63 157 1.0 6.0 0.00 0.00 0.00 42 1010.3
20260501220221 63 151 3.0 6.0 0.00 0.00 0.00 42 1010.4
20260501215721 63 163 2.0 6.0 0.00 0.00 0.00 44 1010.4
20260501215222 63 217 1.0 3.0 0.00 0.00 0.00 40 1010.4
20260501214724 63 189 2.0 6.0 0.00 0.00 0.00 41 1010.4
20260501214222 63 173 2.0 6.0 0.00 0.00 0.00 42 1010.5
20260501213722 63 178 0.0 2.0 0.00 0.00 0.00 40 1010.5
20260501213222 63 178 0.0 5.0 0.00 0.00 0.00 41 1010.5
20260501212722 63 178 1.0 5.0 0.00 0.00 0.00 39 1010.7
20260501212222 63 232 1.0 3.0 0.00 0.00 0.00 39 1010.7
20260501211722 63 237 1.0 5.0 0.00 0.00 0.00 38 1010.7
20260501211221 63 242 1.0 5.0 0.00 0.00 0.00 39 1010.6
20260501210723 63 145 3.0 5.0 0.00 0.00 0.00 38 1010.6
20260501210222 63 166 0.0 3.0 0.00 0.00 0.00 39 1010.6
20260501205722 63 192 0.0 3.0 0.00 0.00 0.00 37 1010.7
20260501205223 63 192 1.0 5.0 0.00 0.00 0.00 39 1010.7
20260501204723 63 192 3.0 5.0 0.00 0.00 0.00 40 1010.6
20260501204222 63 219 0.0 5.0 0.00 0.00 0.00 39 1010.7
20260501203722 63 237 1.0 5.0 0.00 0.00 0.00 40 1010.8
20260501203221 63 188 2.0 5.0 0.00 0.00 0.00 42 1010.8
20260501202723 63 194 2.0 5.0 0.00 0.00 0.00 43 1010.7
20260501202504 63 194 2.0 5.0 0.00 0.00 0.00 41 1010.9
20260501202005 63 197 2.0 5.0 0.00 0.00 0.00 42 1011.0
20260501201503 63 174 1.0 7.0 0.00 0.00 0.00 42 1011.0
20260501201004 63 151 2.0 7.0 0.00 0.00 0.00 44 1011.0
20260501200219 63 167 1.0 3.0 0.00 0.00 0.00 43 1011.1
20260501195719 63 294 1.0 3.0 0.00 0.00 0.00 44 1011.3
20260501195219 63 193 2.0 3.0 0.00 0.00 0.00 44 1011.4
20260501194718 63 157 1.0 5.0 0.00 0.00 0.00 45 1011.4
20260501194218 63 186 0.0 5.0 0.00 0.00 0.00 43 1011.5
20260501193719 63 171 2.0 5.0 0.00 0.00 0.00 46 1011.7
20260501193218 64 192 1.0 5.0 0.00 0.00 0.00 44 1011.9
20260501192720 64 150 2.0 5.0 0.00 0.00 0.00 44 1011.9
20260501192225 64 217 1.0 5.0 0.00 0.00 0.00 45 1011.9
20260501191723 64 141 1.0 3.0 0.00 0.00 0.00 45 1011.9
20260501191221 64 150 2.0 5.0 0.00 0.00 0.00 45 1012.0
20260501190722 64 148 3.0 5.0 0.00 0.00 0.00 45 1012.0
20260501190222 64 225 1.0 5.0 0.00 0.00 0.00 45 1012.2
20260501185722 63 168 3.0 5.0 0.00 0.00 0.00 43 1012.1
20260501185222 63 73 2.0 3.0 0.00 0.00 0.00 41 1012.2
20260501184722 63 165 1.0 3.0 0.00 0.00 0.00 44 1012.3
20260501184221 63 173 1.0 3.0 0.00 0.00 0.00 43 1012.3
20260501183723 63 146 1.0 3.0 0.00 0.00 0.00 44 1012.5
20260501183221 63 190 2.0 3.0 0.00 0.00 0.00 43 1012.4
20260501182719 63 190 1.0 3.0 0.00 0.00 0.00 40 1012.7
20260501182218 63 325 1.0 3.0 0.00 0.00 0.00 42 1012.7
20260501181720 62 273 1.0 3.0 0.00 0.00 0.00 42 1012.8
20260501181220 62 178 1.0 3.0 0.00 0.00 0.00 43 1012.8
20260501180719 62 178 1.0 6.0 0.00 0.00 0.00 41 1012.9
20260501180219 62 142 2.0 7.0 0.00 0.00 0.00 47 1012.9
20260501175720 62 152 3.0 7.0 0.00 0.00 0.00 44 1013.0
20260501175218 62 218 1.0 5.0 0.00 0.00 0.00 44 1013.1
20260501174718 62 178 2.0 5.0 0.00 0.00 0.00 46 1013.0
20260501174218 62 200 1.0 3.0 0.00 0.00 0.00 44 1013.0
20260501173719 62 227 1.0 3.0 0.00 0.00 0.00 44 1013.1
20260501173219 62 153 1.0 3.0 0.00 0.00 0.00 43 1013.1
20260501172719 62 150 1.0 3.0 0.00 0.00 0.00 43 1013.3
20260501172218 62 213 1.0 3.0 0.00 0.00 0.00 43 1013.3
20260501171719 61 270 1.0 3.0 0.00 0.00 0.00 46 1013.2
20260501171222 61 250 2.0 3.0 0.00 0.00 0.00 47 1013.3
20260501170719 61 202 1.0 3.0 0.00 0.00 0.00 44 1013.2
20260501170219 61 215 1.0 2.0 0.00 0.00 0.00 45 1013.3
20260501165720 61 163 1.0 5.0 0.00 0.00 0.00 46 1013.5
20260501165219 60 157 2.0 5.0 0.00 0.00 0.00 46 1013.5
20260501164719 60 173 2.0 3.0 0.00 0.00 0.00 45 1013.5
20260501164218 60 168 1.0 3.0 0.00 0.00 0.00 45 1013.5
20260501163720 60 157 1.0 3.0 0.00 0.00 0.00 45 1013.6
20260501163219 60 178 1.0 2.0 0.00 0.00 0.00 47 1013.7
20260501162721 60 182 1.0 3.0 0.00 0.00 0.00 44 1013.7
20260501162221 60 182 1.0 3.0 0.00 0.00 0.00 44 1013.7
20260501161726 60 126 1.0 3.0 0.00 0.00 0.00 44 1013.8
20260501161223 60 267 1.0 3.0 0.00 0.00 0.00 42 1013.9
20260501160224 59 280 2.0 3.0 0.00 0.00 0.00 46 1014.0
20260501155724 59 253 1.0 5.0 0.00 0.00 0.00 44 1014.0
20260501155222 59 98 1.0 5.0 0.00 0.00 0.00 46 1014.2
20260501154722 59 168 1.0 5.0 0.00 0.00 0.00 47 1014.3
20260501154221 59 168 1.0 5.0 0.00 0.00 0.00 44 1014.3
20260501153722 59 167 2.0 5.0 0.00 0.00 0.00 45 1014.4
20260501153222 59 141 1.0 3.0 0.00 0.00 0.00 47 1014.6
20260501152719 58 148 1.0 3.0 0.00 0.00 0.00 48 1014.6
20260501152220 58 259 2.0 3.0 0.00 0.00 0.00 49 1014.7
20260501151719 58 94 0.0 3.0 0.00 0.00 0.00 46 1014.8
20260501151219 57 111 2.0 3.0 0.00 0.00 0.00 48 1014.8
20260501150720 57 172 1.0 2.0 0.00 0.00 0.00 47 1014.8
20260501150219 57 172 1.0 2.0 0.00 0.00 0.00 49 1014.8
20260501145719 56 313 0.0 0.0 0.00 0.00 0.00 54 1015.0
20260501145219 56 177 0.0 0.0 0.00 0.00 0.00 50 1015.0
20260501144719 57 177 0.0 2.0 0.00 0.00 0.00 49 1015.0
20260501144218 56 138 0.0 3.0 0.00 0.00 0.00 47 1015.0
20260501143721 56 138 1.0 3.0 0.00 0.00 0.00 50 1015.0
20260501143220 56 138 1.0 3.0 0.00 0.00 0.00 46 1015.0
20260501142719 57 49 0.0 2.0 0.00 0.00 0.00 50 1015.0
20260501142220 56 133 0.0 5.0 0.00 0.00 0.00 49 1015.1
20260501141719 56 184 1.0 5.0 0.00 0.00 0.00 52 1015.1
20260501141219 56 155 0.0 3.0 0.00 0.00 0.00 52 1015.1
20260501140719 56 105 0.0 1.0 0.00 0.00 0.00 56 1015.1
20260501140218 55 105 0.0 3.0 0.00 0.00 0.00 55 1015.0